This demonstration page uses our WeatherBlox Daily Observations layout. Learn more.

Left ArrowRight Arrow

Hourly Observations for July 2, 2017

Temp ( °F °C ) Dew Point ( °F °C ) Humidity (%) Winds ( mph kmh ) Pressure ( in mb ) Visibility ( mi km ) Precip ( " mm )
12:53 am 00:53 Clear 71 21.7 53 11.7 53 53 SSW 8 13 29.97 1015 10 16 0.00 0.00
1:53 am 01:53 Clear 69 20.6 52 11.1 55 55 SSW 10 17 29.97 1015 10 16 0.00 0.00
2:53 am 02:53 Clear 68 20 52 11.1 57 57 SSW 8 13 29.96 1015 10 16 0.00 0.00
3:53 am 03:53 Clear 69 20.6 53 11.7 57 57 SSW 9 15 29.96 1015 10 16 0.00 0.00
4:53 am 04:53 Clear 69 20.6 54 12.2 59 59 S 9 15 29.95 1014 10 16 0.00 0.00
5:53 am 05:53 Clear 68 20 55 12.8 63 63 SSW 8 13 29.96 1015 10 16 0.00 0.00
6:53 am 06:53 Mostly Sunny 68 20 57 13.9 68 68 S 8 13 29.98 1015 10 16 0.00 0.00
7:53 am 07:53 Mostly Sunny 70 21.1 59 15 68 68 SSW 8 13 29.99 1016 10 16 0.00 0.00
8:22 am 08:22 Partly Cloudy with Nearby Thunderstorms 73 23 61 16 65 65 SW 9 15 29.94 1014 10 16 0.00 0.00
8:37 am 08:37 Mostly Cloudy 74 23.3 60 15.6 62 62 WSW 12 19 29.97 1015 10 16 0.00 0.00
8:53 am 08:53 Cloudy with Nearby Thunderstorms 71 21.7 61 16.1 71 71 SW 9 15 29.99 1016 10 16 0.00 0.00
9:25 am 09:25 Mostly Cloudy 72 22.2 61 16.1 68 68 ENE 7 11 30.03 1017 10 16 0.00 0.00
9:36 am 09:36 Partly Cloudy with Nearby Thunderstorms 75 24 61 16 61 61 VRB 5 7 30.00 1016 10 16 0.00 0.00
9:51 am 09:51 Mostly Cloudy 73 23 61 16 65 65 ESE 8 13 30.03 1017 10 16 0.00 0.00
9:53 am 09:53 Mostly Cloudy 74 23.3 61 16.1 64 64 ESE 8 13 30.04 1017 10 16 0.00 0.00
10:53 am 10:53 Mostly Cloudy 73 22.8 63 17.2 71 71 SE 12 19 30.03 1017 10 16 0.00 0.00
11:53 am 11:53 Mostly Cloudy 77 25 64 17.8 64 64 SSE 12 19 30.02 1017 10 16 0.00 0.00
12:53 pm 12:53 Partly Cloudy 84 28.9 64 17.8 51 51 SSE 10 17 30.00 1016 10 16 0.00 0.00
1:53 pm 13:53 Sunny 87 30.6 60 15.6 40 40 S 9 15 30.00 1016 10 16 0.00 0.00
2:53 pm 14:53 Sunny 88 31.1 62 16.7 42 42 SE 10 17 29.99 1016 10 16 0.00 0.00
3:53 pm 15:53 Sunny 89 31.7 62 16.7 41 41 SSE 10 17 29.97 1015 10 16 0.00 0.00
4:53 pm 16:53 Sunny 87 30.6 63 17.2 45 45 ESE 14 22 29.96 1014 10 16 0.00 0.00
5:53 pm 17:53 Sunny 86 30 63 17.2 46 46 ESE 15 24 29.94 1014 10 16 0.00 0.00
6:53 pm 18:53 Sunny 86 30 64 17.8 48 48 SE 12 19 29.93 1014 10 16 0.00 0.00
7:53 pm 19:53 Sunny 83 28.3 65 18.3 55 55 ESE 6 9 29.97 1015 10 16 0.00 0.00
8:53 pm 20:53 Sunny 79 26.1 66 18.9 65 65 NE 5 7 29.98 1015 10 16 0.00 0.00
9:53 pm 21:53 Clear 76 24.4 66 18.9 72 72 SSW 6 9 29.97 1015 10 16 0.00 0.00
10:53 pm 22:53 Clear 77 25 65 18.3 66 66 SE 5 7 29.99 1016 10 16 0.00 0.00
11:53 pm 23:53 Mostly Clear 75 23.9 65 18.3 71 71 WNW 10 17 30.01 1016 10 16 0.00 0.00

Powered by AerisWeather